LPE2437 SPJC-SASA

Flight info

Callsign LPE2437
Flight time 2h 24m
Altitude 37000
Route SCO UL550 LOA UM789 JUJ JUJ2A
Aircraft A320/M-SDE3FGHIRWY/LB1

Departure

Time 2026-04-22 17:45
Airport Jorge Chávez International Airport (SPJC)

Arrival

Time 2026-04-22 20:09
Airport Martín Miguel de Güemes International Airport (SASA)
Time Latitude Longitude Altitude Speed Heading
2026-04-22 17:13 -12.02597 -77.11766 86 ft 0 kts 244°
2026-04-22 17:35 -12.02587 -77.11745 85 ft 4 kts 244°
2026-04-22 17:35 -12.02577 -77.11723 84 ft 2 kts 244°
2026-04-22 17:35 -12.02568 -77.11700 86 ft 4 kts 271°
2026-04-22 17:36 -12.02576 -77.11677 86 ft 4 kts 328°
2026-04-22 17:36 -12.02599 -77.11665 83 ft 4 kts 334°
2026-04-22 17:36 -12.02610 -77.11659 85 ft 0 kts 334°
2026-04-22 17:39 -12.02598 -77.11666 84 ft 5 kts 334°
2026-04-22 17:39 -12.02550 -77.11689 80 ft 10 kts 334°
2026-04-22 17:39 -12.02382 -77.11703 80 ft 15 kts 61°
2026-04-22 17:40 -12.02323 -77.11631 80 ft 13 kts
2026-04-22 17:40 -12.02234 -77.11665 69 ft 16 kts 333°
2026-04-22 17:40 -12.02123 -77.11722 70 ft 20 kts 338°
2026-04-22 17:40 -12.01989 -77.11789 65 ft 23 kts 333°
2026-04-22 17:41 -12.01845 -77.11836 66 ft 17 kts 25°
2026-04-22 17:41 -12.01781 -77.11809 60 ft 9 kts 342°
2026-04-22 17:41 -12.01718 -77.11841 64 ft 12 kts 331°
2026-04-22 17:41 -12.01628 -77.11886 63 ft 17 kts 334°
2026-04-22 17:42 -12.01512 -77.11944 61 ft 21 kts 335°
2026-04-22 17:42 -12.01370 -77.12016 59 ft 25 kts 334°
2026-04-22 17:42 -12.01236 -77.12128 56 ft 26 kts 308°
2026-04-22 17:42 -12.01078 -77.12226 53 ft 23 kts 334°
2026-04-22 17:43 -12.00927 -77.12296 51 ft 19 kts 336°
2026-04-22 17:43 -12.00836 -77.12304 51 ft 9 kts 66°
2026-04-22 17:43 -12.00814 -77.12253 52 ft 9 kts 66°
2026-04-22 17:43 -12.00779 -77.12170 49 ft 16 kts 73°
2026-04-22 17:44 -12.00827 -77.12103 52 ft 1 kts 155°
2026-04-22 17:44 -12.00915 -77.12062 53 ft 45 kts 155°
2026-04-22 17:44 -12.01418 -77.11815 62 ft 113 kts 152°
2026-04-22 17:44 -12.02294 -77.11376 83 ft 165 kts 154°
2026-04-22 17:45 -12.03395 -77.10891 546 ft 175 kts 161°
2026-04-22 17:45 -12.04556 -77.10413 1151 ft 188 kts 157°
2026-04-22 17:45 -12.05814 -77.09786 1539 ft 212 kts 155°
2026-04-22 17:45 -12.07208 -77.09064 1976 ft 236 kts 154°
2026-04-22 17:46 -12.08739 -77.08273 2530 ft 255 kts 153°
2026-04-22 17:46 -12.10341 -77.07452 3420 ft 259 kts 153°
2026-04-22 17:46 -12.11962 -77.06630 4306 ft 262 kts 154°
2026-04-22 17:46 -12.13654 -77.06002 5115 ft 266 kts 174°
2026-04-22 17:47 -12.15470 -77.06348 5873 ft 272 kts 206°
2026-04-22 17:47 -12.17016 -77.07484 6680 ft 276 kts 221°
2026-04-22 17:47 -12.18370 -77.08891 7459 ft 279 kts 227°
2026-04-22 17:47 -12.19680 -77.10374 8230 ft 283 kts 228°
2026-04-22 17:48 -12.20579 -77.11382 8745 ft 285 kts 227°
2026-04-22 17:48 -12.22418 -77.13341 9753 ft 291 kts 226°
2026-04-22 17:48 -12.23878 -77.14810 10280 ft 304 kts 225°
2026-04-22 17:48 -12.25473 -77.16363 10486 ft 327 kts 224°
2026-04-22 17:49 -12.27296 -77.17835 10855 ft 342 kts 212°
2026-04-22 17:49 -12.29499 -77.18824 11438 ft 350 kts 197°
2026-04-22 17:49 -12.31920 -77.19230 12047 ft 356 kts 182°
2026-04-22 17:49 -12.34403 -77.18992 12664 ft 361 kts 168°
2026-04-22 17:50 -12.36876 -77.18458 13291 ft 365 kts 168°
2026-04-22 17:50 -12.39346 -77.17923 13898 ft 370 kts 167°
2026-04-22 17:50 -12.41878 -77.17376 14447 ft 373 kts 168°
2026-04-22 17:50 -12.44428 -77.16826 15013 ft 376 kts 168°
2026-04-22 17:51 -12.46999 -77.16273 15577 ft 379 kts 168°
2026-04-22 17:51 -12.49586 -77.15719 16140 ft 382 kts 168°
2026-04-22 17:51 -12.52201 -77.15160 16676 ft 385 kts 168°
2026-04-22 17:51 -12.54832 -77.14596 17224 ft 388 kts 168°
2026-04-22 17:52 -12.57484 -77.14027 17766 ft 391 kts 168°
2026-04-22 17:52 -12.60156 -77.13452 18296 ft 394 kts 168°
2026-04-22 17:52 -12.62848 -77.12873 18752 ft 397 kts 168°
2026-04-22 17:52 -12.65555 -77.12291 19217 ft 399 kts 168°
2026-04-22 17:53 -12.68287 -77.11704 19688 ft 402 kts 168°
2026-04-22 17:53 -12.71032 -77.11116 20157 ft 404 kts 168°
2026-04-22 17:53 -12.73789 -77.10525 20626 ft 407 kts 169°
2026-04-22 17:53 -12.76570 -77.09928 21108 ft 409 kts 169°
2026-04-22 17:54 -12.79361 -77.09327 21578 ft 411 kts 169°
2026-04-22 17:54 -12.82168 -77.08724 22053 ft 413 kts 169°
2026-04-22 17:54 -12.84990 -77.08117 22526 ft 416 kts 169°
2026-04-22 17:54 -12.87832 -77.07503 22991 ft 418 kts 169°
2026-04-22 17:55 -12.89723 -77.07094 23288 ft 419 kts 169°
2026-04-22 17:55 -12.93517 -77.06271 23827 ft 422 kts 169°
2026-04-22 17:55 -12.96436 -77.05637 24188 ft 424 kts 169°
2026-04-22 17:55 -12.99294 -77.05018 24542 ft 427 kts 169°
2026-04-22 17:56 -13.02211 -77.04382 24879 ft 429 kts 168°
2026-04-22 17:56 -13.05063 -77.03431 25209 ft 434 kts 158°
2026-04-22 17:56 -13.07718 -77.01946 25535 ft 438 kts 147°
2026-04-22 17:56 -13.10076 -76.99955 25857 ft 441 kts 135°
2026-04-22 17:57 -13.12096 -76.97569 26186 ft 444 kts 130°
2026-04-22 17:57 -13.14068 -76.95124 26511 ft 446 kts 130°
2026-04-22 17:57 -13.16057 -76.92676 26830 ft 448 kts 130°
2026-04-22 17:57 -13.18061 -76.90218 27148 ft 450 kts 130°
2026-04-22 17:58 -13.20079 -76.87750 27464 ft 452 kts 130°
2026-04-22 17:58 -13.22106 -76.85267 27763 ft 454 kts 130°
2026-04-22 17:58 -13.24134 -76.82774 28065 ft 456 kts 130°
2026-04-22 17:58 -13.26172 -76.80267 28359 ft 458 kts 130°
2026-04-22 17:59 -13.28216 -76.77746 28643 ft 461 kts 130°
2026-04-22 17:59 -13.30269 -76.75210 28919 ft 463 kts 130°
2026-04-22 17:59 -13.32330 -76.72662 29190 ft 465 kts 130°
2026-04-22 17:59 -13.34403 -76.70098 29461 ft 467 kts 130°
2026-04-22 18:00 -13.35783 -76.68393 29634 ft 469 kts 130°
2026-04-22 18:00 -13.38580 -76.64939 29980 ft 472 kts 130°
2026-04-22 18:00 -13.40683 -76.62343 30204 ft 474 kts 130°
2026-04-22 18:00 -13.42796 -76.59734 30416 ft 475 kts 130°
2026-04-22 18:01 -13.44916 -76.57117 30627 ft 477 kts 130°
2026-04-22 18:01 -13.47043 -76.54490 30824 ft 479 kts 130°
2026-04-22 18:01 -13.49177 -76.51855 31015 ft 481 kts 130°
2026-04-22 18:01 -13.51321 -76.49204 31210 ft 483 kts 130°
2026-04-22 18:02 -13.53470 -76.46544 31404 ft 484 kts 130°
2026-04-22 18:02 -13.55620 -76.43882 31688 ft 484 kts 130°
2026-04-22 18:02 -13.57765 -76.41224 31965 ft 483 kts 130°
2026-04-22 18:02 -13.59912 -76.38566 32237 ft 483 kts 130°
2026-04-22 18:03 -13.62058 -76.35909 32510 ft 483 kts 130°
2026-04-22 18:03 -13.64202 -76.33250 32795 ft 483 kts 130°
2026-04-22 18:03 -13.66344 -76.30591 33073 ft 483 kts 130°
2026-04-22 18:03 -13.68486 -76.27932 33349 ft 483 kts 130°
2026-04-22 18:04 -13.70626 -76.25278 33631 ft 483 kts 130°
2026-04-22 18:04 -13.72786 -76.22629 33905 ft 482 kts 133°
2026-04-22 18:04 -13.75193 -76.20237 34160 ft 481 kts 142°
2026-04-22 18:04 -13.77840 -76.18133 34421 ft 480 kts 143°
2026-04-22 18:05 -13.80488 -76.16054 34679 ft 479 kts 143°
2026-04-22 18:05 -13.83137 -76.13968 34917 ft 478 kts 143°
2026-04-22 18:05 -13.85778 -76.11887 35164 ft 478 kts 143°
2026-04-22 18:05 -13.88380 -76.09832 35412 ft 477 kts 142°
2026-04-22 18:06 -13.91006 -76.07756 35653 ft 476 kts 142°
2026-04-22 18:06 -13.93633 -76.05680 35889 ft 476 kts 142°
2026-04-22 18:06 -13.96257 -76.03607 36120 ft 475 kts 142°
2026-04-22 18:06 -13.98879 -76.01536 36336 ft 475 kts 142°
2026-04-22 18:07 -14.00647 -76.00140 36482 ft 475 kts 142°
2026-04-22 18:07 -14.04117 -75.97399 36764 ft 474 kts 141°
2026-04-22 18:07 -14.06730 -75.95330 36958 ft 474 kts 141°
2026-04-22 18:08 -14.11947 -75.91205 37030 ft 471 kts 141°
2026-04-22 18:08 -14.17145 -75.87092 37036 ft 471 kts 141°
2026-04-22 18:09 -14.22332 -75.82976 37040 ft 471 kts 141°
2026-04-22 18:09 -14.26649 -75.79555 37042 ft 471 kts 141°
2026-04-22 18:10 -14.31849 -75.75430 37046 ft 471 kts 141°
2026-04-22 18:10 -14.37052 -75.71309 37065 ft 472 kts 141°
2026-04-22 18:11 -14.42249 -75.67177 37071 ft 472 kts 141°
2026-04-22 18:11 -14.47461 -75.63032 37078 ft 472 kts 141°
2026-04-22 18:12 -14.52668 -75.58895 37076 ft 472 kts 141°
2026-04-22 18:12 -14.57847 -75.54778 37078 ft 472 kts 141°
2026-04-22 18:13 -14.63089 -75.50611 37077 ft 472 kts 141°
2026-04-22 18:13 -14.68262 -75.46489 37072 ft 473 kts 141°
2026-04-22 18:14 -14.73475 -75.42335 37069 ft 473 kts 141°
2026-04-22 18:14 -14.78684 -75.38186 37072 ft 473 kts 141°
2026-04-22 18:15 -14.83902 -75.34024 37073 ft 473 kts 141°
2026-04-22 18:15 -14.89116 -75.29864 37073 ft 473 kts 141°
2026-04-22 18:16 -14.94339 -75.25699 37070 ft 473 kts 141°
2026-04-22 18:16 -14.99544 -75.21534 37073 ft 473 kts 141°
2026-04-22 18:17 -15.04754 -75.17356 37073 ft 473 kts 141°
2026-04-22 18:17 -15.09922 -75.13219 37067 ft 473 kts 141°
2026-04-22 18:18 -15.15132 -75.09055 37070 ft 473 kts 141°
2026-04-22 18:18 -15.20339 -75.04884 37073 ft 473 kts 141°
2026-04-22 18:19 -15.25545 -75.00707 37074 ft 473 kts 141°
2026-04-22 18:19 -15.30752 -74.96529 37068 ft 473 kts 141°
2026-04-22 18:20 -15.35966 -74.92337 37068 ft 474 kts 141°
2026-04-22 18:20 -15.41181 -74.88149 37071 ft 474 kts 141°
2026-04-22 18:21 -15.46406 -74.83958 37068 ft 475 kts 141°
2026-04-22 18:21 -15.51630 -74.79749 37071 ft 475 kts 141°
2026-04-22 18:22 -15.56861 -74.75539 37067 ft 476 kts 141°
2026-04-22 18:22 -15.62056 -74.71349 37061 ft 476 kts 141°
2026-04-22 18:23 -15.67295 -74.67121 37058 ft 476 kts 141°
2026-04-22 18:23 -15.72539 -74.62896 37058 ft 477 kts 141°
2026-04-22 18:24 -15.80399 -74.56556 37054 ft 477 kts 141°
2026-04-22 18:25 -15.88225 -74.50235 37045 ft 477 kts 141°
2026-04-22 18:25 -15.93463 -74.46000 37035 ft 477 kts 141°
2026-04-22 18:26 -16.01322 -74.39627 37029 ft 478 kts 141°
2026-04-22 18:26 -16.06570 -74.35376 37029 ft 478 kts 141°
2026-04-22 18:27 -16.11825 -74.31123 37031 ft 479 kts 141°
2026-04-22 18:27 -16.17077 -74.26859 37029 ft 479 kts 141°
2026-04-22 18:28 -16.22331 -74.22595 37030 ft 479 kts 141°
2026-04-22 18:28 -16.27598 -74.18315 37032 ft 480 kts 141°
2026-04-22 18:29 -16.32860 -74.14039 37033 ft 480 kts 141°
2026-04-22 18:29 -16.38122 -74.09755 37031 ft 480 kts 141°
2026-04-22 18:30 -16.45980 -74.03352 37030 ft 480 kts 141°
2026-04-22 18:31 -16.51250 -73.99062 37028 ft 481 kts 141°
2026-04-22 18:31 -16.56520 -73.94765 37028 ft 481 kts 141°
2026-04-22 18:32 -16.61790 -73.90460 37031 ft 481 kts 141°
2026-04-22 18:32 -16.67062 -73.86158 37031 ft 482 kts 141°
2026-04-22 18:33 -16.72342 -73.81839 37029 ft 482 kts 141°
2026-04-22 18:33 -16.77619 -73.77519 37028 ft 482 kts 141°
2026-04-22 18:34 -16.82894 -73.73201 37025 ft 482 kts 141°
2026-04-22 18:34 -16.88178 -73.68872 37029 ft 482 kts 141°
2026-04-22 18:35 -16.93457 -73.64538 37026 ft 483 kts 141°
2026-04-22 18:35 -16.98734 -73.60196 37023 ft 483 kts 141°
2026-04-22 18:36 -17.04018 -73.55854 37025 ft 483 kts 141°
2026-04-22 18:36 -17.09310 -73.51514 37024 ft 484 kts 141°
2026-04-22 18:37 -17.14601 -73.47166 37025 ft 484 kts 141°
2026-04-22 18:37 -17.19001 -73.43549 37024 ft 484 kts 141°
2026-04-22 18:38 -17.25195 -73.38449 37022 ft 484 kts 141°
2026-04-22 18:38 -17.30449 -73.34108 37021 ft 485 kts 141°
2026-04-22 18:39 -17.38396 -73.27545 37022 ft 485 kts 141°
2026-04-22 18:39 -17.43697 -73.23172 37020 ft 485 kts 141°
2026-04-22 18:40 -17.49005 -73.18794 37020 ft 485 kts 141°
2026-04-22 18:40 -17.54306 -73.14411 37019 ft 485 kts 141°
2026-04-22 18:41 -17.59607 -73.10024 37019 ft 485 kts 141°
2026-04-22 18:41 -17.64905 -73.05627 37018 ft 486 kts 141°
2026-04-22 18:42 -17.70207 -73.01229 37016 ft 486 kts 141°
2026-04-22 18:42 -17.75492 -72.96855 37016 ft 486 kts 141°
2026-04-22 18:43 -17.80804 -72.92445 37015 ft 486 kts 141°
2026-04-22 18:43 -17.86106 -72.88034 37014 ft 487 kts 141°
2026-04-22 18:44 -17.91418 -72.83617 37019 ft 487 kts 141°
2026-04-22 18:44 -17.96731 -72.79194 37016 ft 487 kts 141°
2026-04-22 18:45 -18.02047 -72.74765 37015 ft 488 kts 141°
2026-04-22 18:45 -18.07364 -72.70328 37020 ft 488 kts 141°
2026-04-22 18:46 -18.12687 -72.65889 37015 ft 488 kts 141°
2026-04-22 18:46 -18.18015 -72.61440 37020 ft 489 kts 141°
2026-04-22 18:47 -18.23338 -72.56983 37017 ft 489 kts 141°
2026-04-22 18:47 -18.28635 -72.52554 37017 ft 489 kts 141°
2026-04-22 18:48 -18.33973 -72.48097 37017 ft 490 kts 141°
2026-04-22 18:48 -18.39310 -72.43630 37018 ft 490 kts 141°
2026-04-22 18:49 -18.44650 -72.39156 37022 ft 491 kts 141°
2026-04-22 18:49 -18.49991 -72.34675 37021 ft 491 kts 141°
2026-04-22 18:50 -18.55337 -72.30192 37020 ft 491 kts 141°
2026-04-22 18:50 -18.60689 -72.25700 37020 ft 491 kts 141°
2026-04-22 18:51 -18.66042 -72.21201 37019 ft 492 kts 141°
2026-04-22 18:51 -18.71392 -72.16699 37019 ft 492 kts 141°
2026-04-22 18:52 -18.76710 -72.12226 37021 ft 492 kts 141°
2026-04-22 18:52 -18.82071 -72.07719 37022 ft 493 kts 141°
2026-04-22 18:53 -18.87431 -72.03201 37022 ft 493 kts 141°
2026-04-22 18:53 -18.92787 -71.98669 37018 ft 493 kts 141°
2026-04-22 18:54 -18.97250 -71.94894 37017 ft 494 kts 141°
2026-04-22 18:54 -19.02617 -71.90359 37028 ft 494 kts 141°
2026-04-22 18:55 -19.07986 -71.85817 37031 ft 494 kts 141°
2026-04-22 18:55 -19.13361 -71.81275 37022 ft 495 kts 141°
2026-04-22 18:56 -19.18732 -71.76729 37021 ft 495 kts 141°
2026-04-22 18:56 -19.24106 -71.72167 37023 ft 495 kts 141°
2026-04-22 18:57 -19.29477 -71.67604 37023 ft 495 kts 141°
2026-04-22 18:57 -19.34854 -71.63022 37037 ft 496 kts 141°
2026-04-22 18:58 -19.40239 -71.58450 37023 ft 496 kts 141°
2026-04-22 18:58 -19.45636 -71.53865 37033 ft 497 kts 141°
2026-04-22 18:59 -19.51017 -71.49277 37040 ft 497 kts 141°
2026-04-22 18:59 -19.56411 -71.44689 37036 ft 497 kts 141°
2026-04-22 19:00 -19.61771 -71.40117 37033 ft 497 kts 141°
2026-04-22 19:00 -19.67155 -71.35502 37026 ft 497 kts 141°
2026-04-22 19:01 -19.72541 -71.30898 37026 ft 498 kts 141°
2026-04-22 19:01 -19.77943 -71.26285 37027 ft 498 kts 141°
2026-04-22 19:02 -19.83344 -71.21663 37039 ft 499 kts 141°
2026-04-22 19:02 -19.88741 -71.17027 37027 ft 499 kts 141°
2026-04-22 19:03 -19.94140 -71.12390 37044 ft 499 kts 141°
2026-04-22 19:03 -19.99549 -71.07746 37032 ft 500 kts 141°
2026-04-22 19:04 -20.04962 -71.03107 37038 ft 500 kts 141°
2026-04-22 19:04 -20.10376 -70.98455 37038 ft 500 kts 141°
2026-04-22 19:05 -20.15746 -70.93822 37036 ft 500 kts 141°
2026-04-22 19:05 -20.21150 -70.89157 37036 ft 501 kts 141°
2026-04-22 19:06 -20.26562 -70.84487 37040 ft 501 kts 141°
2026-04-22 19:07 -20.34688 -70.77474 37032 ft 501 kts 141°
2026-04-22 19:07 -20.40114 -70.72783 37037 ft 502 kts 141°
2026-04-22 19:08 -20.45532 -70.68086 37043 ft 502 kts 141°
2026-04-22 19:08 -20.50947 -70.63385 37042 ft 502 kts 141°
2026-04-22 19:09 -20.56363 -70.58684 37039 ft 502 kts 141°
2026-04-22 19:09 -20.61781 -70.53981 37039 ft 502 kts 141°
2026-04-22 19:10 -20.67193 -70.49268 37036 ft 502 kts 141°
2026-04-22 19:10 -20.72607 -70.44563 37032 ft 502 kts 141°
2026-04-22 19:11 -20.78033 -70.39849 37027 ft 502 kts 141°
2026-04-22 19:11 -20.83448 -70.35135 37025 ft 502 kts 141°
2026-04-22 19:12 -20.88860 -70.30417 37026 ft 502 kts 141°
2026-04-22 19:12 -20.94282 -70.25688 37028 ft 503 kts 141°
2026-04-22 19:13 -20.99708 -70.20955 37029 ft 503 kts 141°
2026-04-22 19:13 -21.05134 -70.16207 37032 ft 504 kts 141°
2026-04-22 19:14 -21.10559 -70.11461 37033 ft 504 kts 141°
2026-04-22 19:14 -21.15985 -70.06698 37033 ft 504 kts 141°
2026-04-22 19:15 -21.20494 -70.02740 37032 ft 504 kts 141°
2026-04-22 19:15 -21.26841 -69.97174 37023 ft 504 kts 141°
2026-04-22 19:16 -21.32265 -69.92406 37020 ft 504 kts 141°
2026-04-22 19:16 -21.37693 -69.87631 37015 ft 505 kts 141°
2026-04-22 19:17 -21.43121 -69.82848 37007 ft 505 kts 141°
2026-04-22 19:17 -21.48543 -69.78066 36995 ft 505 kts 141°
2026-04-22 19:18 -21.53976 -69.73280 36991 ft 505 kts 141°
2026-04-22 19:18 -21.59405 -69.68479 36978 ft 505 kts 141°
2026-04-22 19:19 -21.64831 -69.63671 36973 ft 505 kts 141°
2026-04-22 19:19 -21.70259 -69.58871 36964 ft 506 kts 141°
2026-04-22 19:20 -21.75695 -69.54060 36960 ft 506 kts 141°
2026-04-22 19:20 -21.81126 -69.49243 36961 ft 506 kts 141°
2026-04-22 19:21 -21.86558 -69.44418 36963 ft 506 kts 141°
2026-04-22 19:21 -21.91997 -69.39586 36972 ft 507 kts 141°
2026-04-22 19:22 -21.97431 -69.34752 36981 ft 507 kts 141°
2026-04-22 19:22 -22.02872 -69.29906 36994 ft 507 kts 141°
2026-04-22 19:23 -22.08319 -69.25061 37010 ft 508 kts 141°
2026-04-22 19:23 -22.13765 -69.20204 37019 ft 508 kts 141°
2026-04-22 19:24 -22.19209 -69.15336 37028 ft 508 kts 141°
2026-04-22 19:24 -22.24658 -69.10465 37034 ft 509 kts 141°
2026-04-22 19:25 -22.30114 -69.05587 37039 ft 509 kts 141°
2026-04-22 19:25 -22.35560 -69.00704 37040 ft 509 kts 141°
2026-04-22 19:26 -22.41008 -68.95807 37039 ft 509 kts 141°
2026-04-22 19:26 -22.46455 -68.90915 37044 ft 510 kts 141°
2026-04-22 19:27 -22.51230 -68.85325 37051 ft 510 kts 123°
2026-04-22 19:27 -22.54777 -68.78704 37054 ft 509 kts 117°
2026-04-22 19:28 -22.58225 -68.72022 37055 ft 509 kts 117°
2026-04-22 19:28 -22.61680 -68.65339 37052 ft 509 kts 117°
2026-04-22 19:29 -22.65133 -68.58647 37050 ft 509 kts 117°
2026-04-22 19:29 -22.68584 -68.51951 37046 ft 509 kts 117°
2026-04-22 19:30 -22.71467 -68.46343 37041 ft 509 kts 117°
2026-04-22 19:30 -22.75465 -68.38553 37047 ft 509 kts 117°
2026-04-22 19:31 -22.78913 -68.31862 37049 ft 508 kts 117°
2026-04-22 19:31 -22.82364 -68.25161 37064 ft 508 kts 117°
2026-04-22 19:32 -22.85801 -68.18465 37072 ft 509 kts 117°
2026-04-22 19:32 -22.89237 -68.11759 37086 ft 508 kts 117°
2026-04-22 19:33 -22.92672 -68.05055 37102 ft 508 kts 117°
2026-04-22 19:33 -22.96108 -67.98344 37120 ft 509 kts 117°
2026-04-22 19:34 -22.99533 -67.91626 37141 ft 509 kts 117°
2026-04-22 19:34 -23.02956 -67.84906 37161 ft 509 kts 117°
2026-04-22 19:35 -23.06367 -67.78218 37174 ft 509 kts 117°
2026-04-22 19:35 -23.09238 -67.72575 37173 ft 510 kts 117°
2026-04-22 19:36 -23.13215 -67.64743 37187 ft 509 kts 117°
2026-04-22 19:36 -23.16064 -67.59122 37181 ft 509 kts 117°
2026-04-22 19:37 -23.19485 -67.52380 37179 ft 509 kts 117°
2026-04-22 19:37 -23.22904 -67.45629 37168 ft 510 kts 117°
2026-04-22 19:38 -23.26314 -67.38877 37144 ft 509 kts 117°
2026-04-22 19:38 -23.29706 -67.32152 37134 ft 509 kts 117°
2026-04-22 19:39 -23.33108 -67.25388 37113 ft 509 kts 117°
2026-04-22 19:39 -23.36519 -67.18617 37096 ft 509 kts 117°
2026-04-22 19:40 -23.39920 -67.11855 37080 ft 509 kts 117°
2026-04-22 19:40 -23.43311 -67.05091 37068 ft 509 kts 117°
2026-04-22 19:41 -23.46696 -66.98323 37046 ft 509 kts 117°
2026-04-22 19:41 -23.50079 -66.91549 37034 ft 509 kts 117°
2026-04-22 19:42 -23.53459 -66.84765 37022 ft 509 kts 117°
2026-04-22 19:42 -23.56836 -66.77978 37014 ft 510 kts 117°
2026-04-22 19:43 -23.61887 -66.67821 37001 ft 511 kts 117°
2026-04-22 19:43 -23.65278 -66.61006 37000 ft 511 kts 117°
2026-04-22 19:44 -23.68658 -66.54193 36990 ft 510 kts 117°
2026-04-22 19:44 -23.72032 -66.47373 36989 ft 511 kts 117°
2026-04-22 19:45 -23.75406 -66.40533 36990 ft 511 kts 117°
2026-04-22 19:45 -23.78775 -66.33697 36982 ft 511 kts 117°
2026-04-22 19:46 -23.82137 -66.26864 36992 ft 511 kts 117°
2026-04-22 19:46 -23.85506 -66.20032 36996 ft 511 kts 117°
2026-04-22 19:47 -23.88866 -66.13198 37000 ft 511 kts 117°
2026-04-22 19:47 -23.92222 -66.06355 36667 ft 510 kts 117°
2026-04-22 19:48 -23.93896 -66.02934 36425 ft 510 kts 117°
2026-04-22 19:48 -23.95570 -65.99515 36186 ft 510 kts 117°
2026-04-22 19:48 -23.97247 -65.96095 35946 ft 510 kts 117°
2026-04-22 19:48 -23.98919 -65.92682 35717 ft 510 kts 117°
2026-04-22 19:49 -24.00592 -65.89256 35488 ft 511 kts 117°
2026-04-22 19:49 -24.02263 -65.85826 35270 ft 511 kts 117°
2026-04-22 19:49 -24.03933 -65.82401 34950 ft 509 kts 117°
2026-04-22 19:49 -24.05604 -65.78977 34304 ft 510 kts 117°
2026-04-22 19:50 -24.07281 -65.75546 33630 ft 510 kts 117°
2026-04-22 19:50 -24.08949 -65.72134 32992 ft 507 kts 117°
2026-04-22 19:50 -24.10604 -65.68741 32370 ft 504 kts 117°
2026-04-22 19:50 -24.12250 -65.65358 31736 ft 503 kts 117°
2026-04-22 19:51 -24.13890 -65.61982 31117 ft 500 kts 117°
2026-04-22 19:51 -24.15512 -65.58638 30506 ft 496 kts 118°
2026-04-22 19:51 -24.17120 -65.55319 29874 ft 492 kts 117°
2026-04-22 19:51 -24.18709 -65.52032 29293 ft 483 kts 117°
2026-04-22 19:52 -24.20265 -65.48816 28699 ft 472 kts 117°
2026-04-22 19:52 -24.21780 -65.45686 28242 ft 455 kts 118°
2026-04-22 19:52 -24.23252 -65.42653 27620 ft 448 kts 118°
2026-04-22 19:52 -24.24700 -65.39673 27132 ft 439 kts 117°
2026-04-22 19:53 -24.26121 -65.36751 26637 ft 430 kts 117°
2026-04-22 19:53 -24.27509 -65.33885 26135 ft 422 kts 117°
2026-04-22 19:53 -24.28866 -65.31067 25650 ft 414 kts 117°
2026-04-22 19:53 -24.30197 -65.28295 25150 ft 407 kts 117°
2026-04-22 19:54 -24.31503 -65.25573 24646 ft 401 kts 117°
2026-04-22 19:54 -24.32793 -65.22889 24140 ft 395 kts 117°
2026-04-22 19:54 -24.34067 -65.20244 23621 ft 390 kts 117°
2026-04-22 19:54 -24.35327 -65.17633 23069 ft 384 kts 117°
2026-04-22 19:55 -24.36668 -65.15142 22572 ft 376 kts 129°
2026-04-22 19:55 -24.38520 -65.13186 22121 ft 366 kts 148°
2026-04-22 19:55 -24.40763 -65.11955 21685 ft 357 kts 166°
2026-04-22 19:55 -24.43173 -65.11503 21251 ft 348 kts 184°
2026-04-22 19:56 -24.45538 -65.11798 20829 ft 339 kts 200°
2026-04-22 19:56 -24.47749 -65.12641 20419 ft 336 kts 205°
2026-04-22 19:56 -24.49942 -65.13528 20003 ft 336 kts 205°
2026-04-22 19:56 -24.52109 -65.14404 19595 ft 336 kts 205°
2026-04-22 19:57 -24.54308 -65.15291 19179 ft 337 kts 204°
2026-04-22 19:57 -24.56514 -65.16180 18766 ft 338 kts 204°
2026-04-22 19:57 -24.58724 -65.17068 18342 ft 339 kts 204°
2026-04-22 19:57 -24.60934 -65.17956 17888 ft 338 kts 204°
2026-04-22 19:58 -24.63013 -65.18793 17498 ft 337 kts 204°
2026-04-22 19:58 -24.65214 -65.19680 17086 ft 337 kts 203°
2026-04-22 19:58 -24.67412 -65.20568 16678 ft 337 kts 203°
2026-04-22 19:58 -24.69610 -65.21456 16274 ft 336 kts 202°
2026-04-22 19:59 -24.71805 -65.22342 15864 ft 336 kts 202°
2026-04-22 20:00 -24.84971 -65.27660 13364 ft 335 kts 201°
2026-04-22 20:00 -24.87161 -65.28546 12932 ft 334 kts 201°
2026-04-22 20:01 -24.89337 -65.29427 12507 ft 333 kts 201°
2026-04-22 20:01 -24.91512 -65.30309 12081 ft 332 kts 201°
2026-04-22 20:01 -24.93683 -65.31192 11646 ft 332 kts 201°
2026-04-22 20:01 -24.95823 -65.32063 11207 ft 332 kts 201°
2026-04-22 20:02 -24.98020 -65.32956 10757 ft 332 kts 200°
2026-04-22 20:02 -25.00166 -65.33826 10416 ft 322 kts 200°
2026-04-22 20:02 -25.02195 -65.34661 10133 ft 312 kts 204°
2026-04-22 20:02 -25.03984 -65.35989 9968 ft 305 kts 227°
2026-04-22 20:03 -25.05127 -65.37885 9837 ft 297 kts 250°
2026-04-22 20:03 -25.05533 -65.40027 9678 ft 275 kts 271°
2026-04-22 20:03 -25.05308 -65.42067 9227 ft 265 kts 283°
2026-04-22 20:03 -25.04950 -65.44061 8732 ft 265 kts 283°
2026-04-22 20:04 -25.04595 -65.46029 8325 ft 258 kts 282°
2026-04-22 20:04 -25.04252 -65.47936 7705 ft 248 kts 283°
2026-04-22 20:04 -25.03927 -65.49732 7414 ft 227 kts 284°
2026-04-22 20:04 -25.03265 -65.51205 7276 ft 212 kts 317°
2026-04-22 20:05 -25.02055 -65.51989 7167 ft 196 kts 348°
2026-04-22 20:05 -25.00737 -65.51955 6851 ft 186 kts 13°
2026-04-22 20:05 -24.99496 -65.51676 6571 ft 178 kts 12°
2026-04-22 20:05 -24.98330 -65.51421 6333 ft 164 kts 12°
2026-04-22 20:06 -24.97244 -65.51186 6099 ft 153 kts 13°
2026-04-22 20:06 -24.96216 -65.50962 5904 ft 148 kts 13°
2026-04-22 20:06 -24.95216 -65.50743 5692 ft 145 kts 14°
2026-04-22 20:06 -24.94228 -65.50524 5506 ft 144 kts 14°
2026-04-22 20:07 -24.93250 -65.50308 5314 ft 143 kts 12°
2026-04-22 20:07 -24.92271 -65.50094 5119 ft 143 kts 12°
2026-04-22 20:07 -24.91295 -65.49881 4946 ft 142 kts 13°
2026-04-22 20:07 -24.90320 -65.49670 4731 ft 142 kts 12°
2026-04-22 20:08 -24.89362 -65.49459 4547 ft 142 kts 12°
2026-04-22 20:08 -24.88406 -65.49240 4276 ft 140 kts 12°
2026-04-22 20:08 -24.87460 -65.49028 4097 ft 138 kts 12°
2026-04-22 20:08 -24.86543 -65.48813 4024 ft 124 kts 12°
2026-04-22 20:09 -24.85821 -65.48665 4018 ft 85 kts 10°
2026-04-22 20:09 -24.85411 -65.48579 4017 ft 35 kts
2026-04-22 20:09 -24.85211 -65.48539 4018 ft 28 kts 10°
2026-04-22 20:09 -24.85019 -65.48501 4017 ft 28 kts
2026-04-22 20:10 -24.84832 -65.48461 4018 ft 27 kts 13°
2026-04-22 20:10 -24.84660 -65.48383 4017 ft 27 kts 49°
2026-04-22 20:10 -24.84576 -65.48225 4017 ft 23 kts 73°
2026-04-22 20:10 -24.84531 -65.48071 4017 ft 21 kts 72°
2026-04-22 20:11 -24.84482 -65.47957 4017 ft 13 kts 33°
2026-04-22 20:11 -24.84465 -65.47950 4017 ft 0 kts 21°